Showing default

TEMPSAT 1, 1512

Orbit data source: Space-Track

TEMPSAT 1, 1512 is a payload satellite owned by NRL (US) in LEO that was launched on Fri, 13 Aug 1965 UTC via a THOR ABLESTAR launch vehicle from the Air Force Western Test Range (AFWTR). Payload-class satellites include a variety of spacecraft equipped with specific instruments for various scientific and technological missions. These include communications satellites like Starlink; space stations such as the ISS; scientific satellites like the Hubble; Earth observation satellites from companies like Planet Labs, Umbra, and HawkEye 360; GPS; miniature CubeSats for education and research; and military/defense satellites.

Loading next visibility...
Identifier
1512, 1965-065E
Orbit
LEO
Country
Flag of USUS
Related business
Manufacturer
NRL
Mission
Operational Defense Calibration
Bus & Motor
NRL 14", Unknown motor
Mass
9 kg wet, 9 kg dry
Launch date (UTC)
1965-08-13 (60 years ago)
Launch vehicle
THOR ABLESTAR
Launch site
Air Force Western Test Range (AFWTR)
Object type
Payload
Rocket body
Debris
Shape & HBR
Sphere, 0.2 m
Radar Cross Section
0.102 m², Small (<0.1 m²)

Expand to show TLE details & history
Last TLE update: 5 hours ago

TLE from 5 hours ago
0 TEMPSAT 1
1 01512U 65065E   25242.92031378  .00000062  00000-0  10728-3 0  9998
2 01512  89.9804 212.7812 0069202 345.4591  68.1878 13.33570372921365
Epoch: 2025-08-30T22:05Z
TLE epoch observation values (Epoch: 2025-08-30T22:05:15.11Z)
Latitude
54.47897°
Longitude
-97.85213°
Altitude
1,123.371 km
Speed
7.305 km/s
True Right ascension
14h 11m 14s
True Declination
54° 19' 27"
Sunlit
Object was in daylight at epoch
Visualization orbit readout
Latitude
Unknown
Longitude
Unknown
Altitude
Unknown
Speed
Unknown
Apparent Right ascension
Unknown
Apparent Declination
Unknown
Sunlit
N/A
Visualization observer readout
Local Sidereal Time
18:55:16
Azimuth
Unknown
Elevation
Unknown
Doppler factor
Unknown
Orbital elements
Apogee altitude
1,182.361 km
Perigee altitude
1,078.439 km
Semi-major axis
7,508.537 km
Eccentricity
0.00692
Inclination
89.9804°
RAAN
212.7812°
Arg. of periapsis
345.4591°
True anomaly
68.92638°
Mean anomaly
68.1878°
Eccentric anomaly
68.55685°
Mean motion
3.33588 °/min
Orbital period
107.92 mins
BSTAR
0.00010728
Loading maneuver chart data...
Computing Atmospheric mass density...
Loading historical data...
Loading historical data...
Loading historical data...
Loading historical data...
Loading historical data...
Loading historical data...
Loading historical data...

Documentation

Showing up to 5 results
|